軌道要素
Epoch 2015 Feb. 27.0 TT = JDT 2457080.5
T 2015 Feb. 16.51359 TT MPCW
q 1.7404079 (2000.0) P Q
n 0.10535549 Peri. 50.97430 +0.47136625 -0.87990558
a 4.4398122 Node 11.37094 +0.68593516 +0.32312127
e 0.6079997 Incl. 17.66648 +0.55435262 +0.34836591
P 9.36
From 347 observations 2005 Aug. 31-2015 Mar. 23, mean residual 0".5.
|